Location: ??
(35.5138°N, 139.6953°E)
Time: 09:07:56
(UTC+00:00)

SPOT 5 - Pass Details

Date: 07 June 2020
Orbit: 623 x 815 km, 98.3° (Epoch: 05 July)

Event Time Altitude Azimuth Distance (km) Brightness Sun altitude
Exits shadow 11:50:57 30° 104° (ESE) 1,422 3.9 -19.2°
Maximum altitude 11:52:30 36° 70° (ENE) 1,269 3.9 -19.4°
Drops below altitude 10° 11:57:20 10° 6° (N) 2,411 6.2 -20.1°
Sets 11:59:51 0° 358° (N) 3,344 7.2 -20.4°
